Flag for Moldova Weather past 2 weeks in Bălți, Moldova

Now
82 °F

Passing clouds.


Feels Like: 82 °F
Forecast: 65 / 94 °F
Wind: 5 mph from Southeast

Location: Baltsi-Leadoveni - The North of Moldova

Current Time: Aug 28, 2015 at 11:27:42 AM

Latest Report: Aug 28, 2015 at 11:00 AM


Visibility: N/A

Pressure: 30.12 "Hg

Humidity: 42%

Dew point: 57 °F

Location of BălțiLocation

Historic Weather in Bălți — Graph

°F

Bălți temperature yesterday

Maximum temperature yesterday: 86 °F (at 4:00 PM)
Minimum temperature yesterday: 64 °F (at 4:30 AM)
Average temperature yesterday: 76 °F

Past Weeks' High & Low Weather Summary

 TemperatureHumidityPressure
High91 °F (Aug 14, 2:00 PM)94% (Aug 15, 12:00 AM)30.27 "Hg (Aug 15, 12:00 AM)
Low52 °F (Aug 22, 5:30 AM)24% (Aug 24, 3:00 PM)29.80 "Hg (Aug 15, 4:30 PM)
Average72 °F51%30.04 "Hg
* Reported Aug 13 10:00 AM — Aug 28 10:00 AM, Bălți, Weather by CustomWeather, © 2015

Note: Actual official high and low records may vary slightly from our data, if they occured in-between our weather recording intervals... More about our weather records

Advertising

Bălți weather history for previous 24 hours

 ConditionsComfort  
Time TempWeatherWind HumidityBarometerVisibility
10:00 AM
Fri, Aug 28
79 °FPassing clouds.5 mph48%30.12 "HgN/A
9:00 AM75 °FSunny.6 mph54%30.12 "Hg10 mi
8:30 AM73 °FPassing clouds.5 mph57%30.12 "HgN/A
8:00 AM72 °FMild.5 mph61%30.12 "HgN/A
7:00 AM68 °FMild.7 mph64%30.09 "HgN/A
6:00 AM70 °FMild.6 mph60%30.09 "HgN/A
5:00 AM70 °FMild.8 mph60%30.09 "HgN/A
4:00 AM70 °FMild.7 mph60%30.09 "HgN/A
2:00 AM73 °FMild.7 mph53%30.09 "HgN/A
1:00 AM75 °FMild.7 mph54%30.09 "HgN/A
12:30 AM77 °FWarm.3 mph51%30.09 "HgN/A
12:00 AM77 °FWarm.5 mph51%30.09 "HgN/A
11:30 PM
Thu, Aug 27
77 °FWarm.2 mph51%30.09 "HgN/A
11:00 PM81 °FWarm.2 mph45%30.09 "HgN/A
10:00 PM81 °FWarm.3 mph45%30.09 "HgN/A
9:30 PM81 °FWarm.3 mph45%30.09 "HgN/A
9:00 PM81 °FWarm.3 mph45%30.09 "HgN/A
8:30 PM82 °FWarm.2 mph42%30.09 "HgN/A
8:00 PM82 °FWarm.No wind42%30.09 "HgN/A
7:30 PM84 °FPleasantly warm.2 mph40%30.09 "HgN/A
7:00 PM84 °FPleasantly warm.5 mph40%30.09 "HgN/A
6:00 PM84 °FPleasantly warm.5 mph40%30.09 "HgN/A
5:30 PM86 °FPleasantly warm.6 mph38%30.09 "HgN/A
5:00 PM86 °FPleasantly warm.5 mph38%30.09 "HgN/A
4:30 PM84 °FPleasantly warm.7 mph40%30.09 "HgN/A
4:00 PM86 °FScattered clouds.6 mph38%30.09 "HgN/A
3:00 PM84 °FPassing clouds.6 mph40%30.12 "HgN/A
2:30 PM84 °FPassing clouds.7 mph40%30.12 "HgN/A
2:00 PM84 °FSunny.5 mph40%30.12 "Hg10 mi
1:30 PM84 °FSunny.3 mph43%30.15 "Hg10 mi
1:00 PM81 °FPassing clouds.6 mph45%30.15 "HgN/A
12:30 PM82 °FSunny.5 mph45%30.15 "Hg10 mi
12:00 PM81 °FSunny.3 mph48%30.15 "Hg10 mi
11:30 AM79 °FPassing clouds.3 mph48%30.15 "HgN/A
11:00 AM77 °FSunny.3 mph54%30.15 "Hg10 mi
Weather by CustomWeather, © 2015

See weather overviewHow to use our weather pages